SCP
1 2 3 3 3 3 3 3 3 3 3 4 4 4 4 4 4 4 4 4 4 3 3 3 4 4 4 4 4 4 4 4 4 4 3 3 3 3 2 2 2 2 3
2 2 3 3 3 3 3 3 3 3 3 3 4 4 4 4 4 4 4 4 4 4 3 3 4 4 4 4 4 4 4 4 4 4 4 3 3 3 2 2 2 3 3
2 3 3 3 3 3 3 3 3 3 3 3 3 3 4 4 4 4 4 4 4 4 4 4 4 4 4 4 4 4 4 4 4 4 4 3 3 3 3 3 3 3 4
3 3 3 3 3 3 3 3 3 2 2 2 3 3 3 3 4 4 4 4 4 4 4 4 4 4 4 4 4 4 4 4 4 4 4 3 3 3 3 3 3 3 4
2 2 3 3 3 3 3 3 2 2 2 2 2 2 3 3 3 4 4 4 4 4 4 4 4 4 4 4 4 4 4 4 4 4 4 4 3 3 3 3 3 3 3
2 2 2 3 3 3 2 2 2 2 2 2 2 2 3 3 3 4 4 4 4 4 4 4 4 4 4 4 4 3 3 3 4 4 4 4 4 3 3 2 2 3 3
2 2 2 2 2 2 2 2 2 2 2 2 3 3 3 3 3 4 4 4 4 4 4 4 4 4 4 4 4 3 3 3 3 3 4 4 4 4 3 3 3 2 2
2 2 2 2 2 2 2 2 2 2 2 3 3 3 3 3 3 4 4 4 4 4 4 4 4 4 4 4 4 3 3 3 2 2 2 3 3 4 4 4 3 3 3
2 1 1 1 2 2 3 3 3 2 2 3 3 3 3 3 3 4 4 4 4 4 4 4 5 4 4 4 4 3 3 3 3 2 2 2 2 3 4 4 4 3 3
1 1 1 1 1 1 2 3 3 3 2 3 3 3 3 3 3 3 4 4 4 4 4 4 5 5 4 4 4 3 3 3 2 2 1 1 1 2 3 5 5 4 3
1 1 1 1 1 1 2 2 2 2 2 2 2 2 3 3 3 3 3 4 4 4 4 5 5 5 5 4 4 3 3 2 2 1 1 1 1 2 3 4 5 5 4
1 1 1 1 1 1 1 2 2 2 2 2 2 2 2 3 3 3 3 3 4 4 5 5 5 5 5 4 3 3 2 1 1 1 1 1 1 1 2 4 5 6 5
1 1 1 1 1 1 1 1 1 1 1 1 1 1 2 2 2 3 3 3 4 4 4 5 5 5 4 3 2 2 1 1 1 1 1 1 1 1 2 4 6 6 6
1 1 1 1 1 1 1 1 1 1 1 1 1 1 1 1 2 2 3 3 4 4 4 4 4 4 4 3 2 1 1 1 1 1 1 1 1 2 3 5 6 7 6
1 1 1 1 1 1 1 1 1 1 1 1 1 1 1 1 1 1 2 3 4 4 4 4 3 3 3 2 2 1 1 1 1 1 1 1 1 2 4 6 8 7 6
1 1 1 1 1 1 1 1 1 1 1 1 1 1 1 1 1 1 2 3 3 3 3 3 3 3 2 2 1 1 1 1 1 1 1 1 1 2 5 8 9 8 6
2 2 1 1 1 1 1 1 1 1 1 1 1 1 1 1 1 1 2 2 2 3 3 3 3 3 2 2 1 1 1 1 1 1 1 1 1 2 5 8 9 7 6
2 2 1 1 1 1 1 1 1 1 1 1 1 2 2 2 2 2 2 2 2 3 3 2 3 3 3 2 2 1 1 1 1 1 1 1 1 2 4 6 8 7 6
3 2 1 1 1 1 1 1 1 1 2 2 2 2 2 2 3 3 3 2 3 3 2 2 2 2 3 2 2 1 1 1 1 0 0 1 1 1 2 3 5 6 5
4 3 2 1 1 1 1 1 2 2 3 3 3 3 3 3 3 4 4 3 3 3 3 3 2 2 2 2 2 1 1 1 0 0 0 0 1 1 1 1 2 3 4
5 4 3 2 1 1 2 2 3 4 4 4 3 3 3 3 3 3 3 3 3 3 3 3 3 2 2 2 1 1 1 1 0 0 0 1 1 1 1 1 1 1 2
5 5 4 3 2 2 2 3 4 4 4 3 2 2 2 2 2 1 1 2 2 2 2 2 2 2 2 1 1 1 1 1 1 0 1 1 1 1 1 1 1 1 1
5 5 4 3 2 2 2 2 3 3 2 2 1 1 1 1 1 1 1 1 1 2 2 2 2 2 2 1 1 1 1 1 1 0 1 1 1 1 1 1 0 0 0
4 4 3 2 2 2 2 2 2 2 1 1 1 1 1 1 1 1 1 1 2 2 2 2 2 3 3 2 2 2 1 1 1 0 0 0 0 0 0 0 0 0 0
3 2 2 2 2 2 2 2 2 2 2 2 2 1 1 1 1 2 2 2 2 2 3 3 3 3 3 3 3 3 2 2 1 1 1 1 0 0 0 0 0 0 0
2 2 2 2 2 2 3 3 3 2 2 2 2 1 1 1 1 2 2 3 3 3 3 3 3 4 4 4 4 4 3 3 2 2 1 1 1 0 0 0 0 0 0
Wind_Speed
3 5 10 10 10 10 11 11 11 12 12 12 12 13 13 13 13 13 13 13 12 11 11 11 11 11 10 10 11 10 9 10 10 10 9 9 9 9 10 9 9 6 9
7 6 10 10 10 10 11 11 11 11 11 11 11 12 12 12 12 12 12 12 11 10 10 10 10 10 10 10 10 10 9 9 9 9 9 8 9 9 9 9 8 5 8
8 6 8 10 10 10 10 10 10 11 11 10 10 11 11 11 11 11 11 10 10 10 10 9 9 9 9 9 9 9 9 8 8 7 7 4 6 8 9 9 8 8 8
8 6 7 9 10 10 10 10 10 10 11 10 10 10 10 10 10 10 10 10 9 9 9 8 8 8 8 8 9 8 8 7 7 7 4 3 4 7 8 8 8 8 8
6 5 6 9 9 10 10 10 10 10 10 10 10 9 9 9 9 8 8 9 9 8 8 8 8 8 7 8 8 8 8 7 6 5 3 2 2 6 7 8 8 8 8
6 4 5 9 9 9 9 10 9 9 9 9 9 9 8 8 8 8 8 8 8 8 7 7 7 7 7 7 7 7 7 7 6 3 3 2 2 5 7 8 8 8 8
5 4 4 8 8 8 9 9 9 9 9 9 9 8 7 7 8 8 7 7 7 7 7 7 6 6 6 6 6 7 7 6 4 3 3 2 2 5 8 8 8 8 8
6 4 4 7 8 7 7 7 7 8 8 8 8 8 7 7 7 7 7 7 7 6 6 6 5 5 5 6 6 6 6 6 4 4 4 3 4 6 8 8 8 8 9
5 4 3 3 5 6 6 6 6 6 7 7 7 7 7 7 7 7 7 7 7 7 6 6 5 5 5 5 5 6 6 6 4 3 4 3 6 7 8 9 9 9 9
4 4 3 2 2 3 3 5 5 6 6 6 6 6 6 6 6 6 5 5 6 6 6 6 6 5 5 4 4 5 5 4 3 3 2 4 7 8 8 8 9 9 9
4 3 3 2 2 2 2 4 4 5 5 5 4 5 4 2 2 3 4 5 5 6 6 6 5 5 5 4 4 4 4 2 3 2 3 5 8 9 8 8 8 9 10
5 4 3 3 2 2 2 2 1 2 2 2 2 2 2 2 2 3 3 5 5 4 4 5 5 5 3 1 2 3 1 2 3 3 3 7 8 9 9 8 8 9 10
5 5 4 3 3 3 1 1 1 1 1 2 2 2 2 1 1 1 1 2 2 2 1 1 1 1 2 2 2 2 2 2 2 2 3 7 7 9 9 9 9 9 9
4 4 4 3 3 3 2 2 2 1 1 2 2 2 2 1 1 1 1 1 1 1 1 1 1 1 2 2 3 3 3 2 2 2 3 7 7 8 9 9 10 10 10
4 3 3 3 3 3 2 2 2 2 2 2 2 2 2 2 2 2 1 1 2 2 2 2 2 2 2 2 2 3 4 4 4 4 3 7 8 8 8 9 10 10 11
4 3 3 3 3 3 2 2 2 2 2 1 2 2 2 2 2 2 1 1 2 2 2 3 3 3 2 2 3 3 3 4 4 4 3 5 7 8 8 9 10 10 10
4 3 3 3 3 3 2 2 2 2 2 1 1 2 2 2 3 2 2 2 2 1 2 2 2 2 2 2 3 3 3 3 4 4 4 3 4 7 9 9 9 9 10
3 4 3 3 3 3 2 2 1 2 2 1 1 2 2 3 3 3 2 2 2 1 2 2 2 2 2 2 2 3 2 3 4 4 4 4 3 4 6 9 9 9 9
3 4 4 3 3 3 2 1 1 1 1 1 1 1 2 3 3 3 2 2 2 2 2 2 2 2 2 3 3 2 2 2 3 3 3 4 4 4 3 6 8 8 9
3 3 3 2 2 3 2 1 0 0 1 1 1 1 2 2 2 2 2 2 2 2 2 2 2 2 2 2 2 2 2 2 2 3 3 3 3 4 4 5 4 6 9
3 3 3 2 2 2 2 2 1 1 1 1 1 1 1 1 2 2 2 2 2 2 3 3 2 2 2 1 1 1 2 2 3 2 2 2 3 4 4 4 4 3 4
4 3 3 2 2 2 2 2 2 1 1 1 1 0 1 1 2 2 2 2 2 2 2 2 2 2 1 2 2 1 1 2 2 2 2 3 4 3 4 5 4 4 4
3 4 3 3 2 2 2 1 1 1 1 1 1 1 1 1 1 1 2 2 2 2 2 3 3 4 2 2 2 3 3 3 2 2 3 3 3 3 4 4 5 5 5
4 3 2 2 2 2 2 3 3 2 2 2 1 1 1 1 1 2 2 2 2 2 2 3 3 2 3 2 2 2 2 2 2 1 1 2 3 4 4 4 5 5 5
3 2 2 2 1 1 2 3 3 2 2 1 1 1 1 1 2 2 2 2 2 2 3 3 2 3 3 3 3 2 2 1 2 2 2 2 2 3 3 4 4 4 4
2 2 2 2 1 1 1 2 3 3 2 2 2 2 2 1 1 2 2 3 3 3 3 3 3 3 3 3 3 3 3 3 3 3 3 3 3 2 3 3 4 4 4
Wind_Direction
172 166 163 155 149 141 134 128 123 121 120 121 126 129 132 134 135 135 135 136 134 132 131 129 128 127 126 127 127 125 124 124 124 126 128 130 131 133 133 130 121 119 124
151 153 158 156 150 145 139 135 130 126 124 124 128 133 135 136 138 138 138 138 137 135 134 132 131 131 129 130 132 130 129 128 128 131 134 137 139 139 139 138 132 130 133
136 145 153 156 153 149 143 140 136 133 130 129 130 134 137 139 141 142 142 141 140 140 139 137 137 137 135 134 137 137 136 137 138 134 129 127 139 146 148 145 143 143 144
134 136 149 154 153 149 145 145 143 140 138 136 135 137 141 142 145 146 147 146 144 145 147 146 145 144 143 142 144 145 141 137 140 134 116 124 144 155 157 155 152 156 155
124 126 148 150 148 146 146 147 147 146 145 144 144 144 145 147 148 148 153 152 150 150 152 151 150 151 151 150 151 151 149 148 142 131 121 128 139 157 161 163 164 164 162
126 128 147 147 146 145 146 149 152 154 152 151 150 150 150 152 153 156 157 157 155 156 157 157 157 157 160 160 159 159 159 160 147 135 136 141 155 174 173 173 172 171 168
131 128 143 144 144 145 146 148 151 154 155 155 153 154 156 158 161 163 163 163 163 165 165 164 164 164 165 166 167 166 165 168 151 147 161 171 189 196 186 182 180 180 178
139 137 144 149 149 151 151 150 154 154 152 152 155 159 161 165 168 168 168 168 170 175 175 171 168 169 172 171 174 175 174 176 169 170 180 187 202 206 200 192 187 188 186
131 130 136 146 145 147 147 149 157 158 155 154 158 163 170 172 173 174 174 175 178 183 184 180 178 177 176 179 182 184 183 185 175 178 192 193 207 208 207 199 193 193 193
125 133 136 131 127 139 152 154 150 154 156 158 164 170 172 175 179 183 185 190 193 195 193 188 184 183 183 187 193 196 193 187 180 185 197 203 212 212 209 204 201 197 198
151 153 150 144 134 133 149 158 152 157 157 154 162 171 172 173 184 193 199 198 203 206 207 205 199 194 191 199 207 206 192 174 179 196 202 213 214 218 217 213 208 204 206
181 184 172 162 146 136 155 129 124 142 140 139 141 149 150 162 196 202 216 212 212 216 217 218 214 208 196 181 213 201 173 180 188 204 214 220 218 217 217 216 211 210 211
183 182 176 171 160 154 145 138 133 122 125 137 142 146 150 159 192 201 194 218 216 214 216 222 223 197 172 179 196 194 191 191 200 211 219 222 223 220 216 216 216 214 214
176 184 175 176 173 170 154 158 157 154 155 166 178 167 160 163 175 192 188 189 179 175 181 183 195 208 195 200 203 207 207 205 204 210 221 225 228 226 222 218 217 218 219
178 179 175 178 186 175 159 169 161 172 177 182 184 183 169 173 184 197 201 197 195 183 180 185 191 213 222 227 225 217 215 215 212 212 223 225 224 224 224 224 225 220 219
181 185 179 179 180 167 169 176 173 177 176 172 180 189 182 181 178 181 194 200 210 198 189 192 197 204 214 219 232 231 224 221 221 218 221 228 227 223 223 227 231 226 221
175 173 177 175 164 168 180 188 177 183 173 182 196 191 188 187 180 177 186 203 217 204 193 191 201 195 204 211 229 234 227 222 220 221 223 220 227 229 226 227 228 225 221
155 161 172 177 174 187 198 190 191 186 174 191 197 200 202 196 187 179 191 206 204 187 185 191 198 202 213 214 224 234 230 223 221 220 221 220 221 229 231 228 227 223 221
164 169 172 180 188 194 198 198 205 178 180 191 192 205 211 204 192 183 193 205 193 186 189 207 191 191 210 223 228 225 227 227 226 223 222 224 221 221 227 232 230 226 223
159 163 171 181 195 180 171 157 123 143 202 207 215 221 213 203 187 180 186 196 185 185 199 201 200 196 211 216 232 245 239 233 224 221 227 227 224 224 225 232 235 236 229
160 158 172 175 184 161 163 171 178 215 231 251 238 224 204 191 185 180 188 188 192 198 209 200 193 201 220 185 158 293 291 250 232 224 222 221 230 232 228 230 230 232 235
177 176 180 196 190 183 185 186 182 183 213 231 234 204 204 188 180 180 166 194 205 206 210 206 192 189 212 179 167 161 279 299 266 236 225 220 229 229 233 234 230 227 230
191 199 200 206 196 186 166 126 95 69 40 18 305 257 238 212 203 185 170 183 194 193 206 210 202 193 203 207 196 178 181 223 255 258 234 228 227 226 233 236 233 233 231
210 203 201 188 177 178 157 150 155 163 199 230 234 244 263 229 214 204 199 198 192 191 205 215 202 198 184 205 211 213 203 177 187 253 270 243 236 237 240 239 237 232 230
197 189 190 175 180 168 159 164 166 179 209 234 232 233 252 256 234 224 214 211 205 206 212 219 206 203 199 201 201 193 198 206 197 199 249 261 258 240 237 236 234 230 229
164 170 171 165 205 186 175 180 183 195 203 217 240 237 251 268 269 252 228 215 216 215 216 217 211 210 212 209 209 201 188 184 194 196 222 241 255 260 246 236 232 231 229